Location: El Águila
(10.4167°N, 66.7167°W)
Time: 05:02:17
(UTC+00:00)

Meteor 1-15 Rocket - Pass Details

Date: 02 October 2022
Orbit: 840 x 907 km, 81.2° (Epoch: 04 December)

Event Time Altitude Azimuth Distance (km) Brightness Sun altitude
Rises 23:16:08 0° 187° (S) 3,435 7.5 -15.5°
Reaches altitude 10° 23:18:35 10° 187° (S) 2,488 6.7 -16.1°
Maximum altitude 23:24:13 83° 275° (W) 858 4.3 -17.4°
Drops below altitude 10° 23:29:47 10° 3° (N) 2,455 6.6 -18.8°
Sets 23:32:11 0° 4° (N) 3,385 7.3 -19.4°
